Weather in Torremolinos

Spain     36°36′21″N   4°32′29″W
temp.,
°C
wind,
m/s
gust,
m/s
humid.,
%
clouds,
%
prec.,
mm/h
press.,
hPa
HPBL,
m
13 may, thu
thu1323:00+21nnw44613 0.0 101957
02:00+19nnw44660 0.0 101864
05:00+18nw34681 0.0 101792
08:00+17nw34680 0.0 1017115
11:00+19wnw23580 0.0 1018102
14:00+20sw55610 0.0 1017266
17:00+19sw78670 0.0 1015341
20:00+21w46622 0.0 1014236
14 may, fri
fri1423:00+20w23612 0.0 101544
02:00+20nnw58638 0.0 1016114
05:00+18nnw567197 0.0 1015119
08:00+18nw34733 0.0 101590
11:00+19wnw33602 0.0 1016104
14:00+20sw666280 0.0 1016244
17:00+20wsw666413 0.0 1015276
20:00+20wsw236810 0.0 1015193
15 may, sat
sat1523:00+18ene447595 0.0 101788
02:00+18ne348092 0.0 101772
05:00+18ne34835 0.0 101667
08:00+18ne2275100 0.0 101734
11:00+19e227028 0.0 101780
14:00+19s11730 0.0 1017128
17:00+19sw337015 0.0 1015163
20:00+19sw34723 0.0 1014104
16 may, sun
sun1623:00+20wsw3472100 0.0 101540
02:00+19sw127264 0.0 101420
05:00+20wnw22640 0.0 101314
08:00+19s22670 0.0 101418
11:00+20wsw22660 0.0 101464
14:00+21sw43640 0.0 1013217
17:00+21sw66615 0.0 1012319
20:00+22wsw56593 0.0 1011276
17 may, mon
mon1723:00+22wsw55582 0.0 101246
02:00+23nw44465 0.0 101231
05:00+22nnw665061 0.0 101243
08:00+21nnw44574 0.0 101334
11:00+23wnw23535 0.0 101478
14:00+23wsw54615 0.0 1015219
17:00+21ene67730 0.0 1016195
20:00+20ene568332 0.0 1016154